| time (UTC) | temp F | wind direction | speed knots | gust knots | rain 1hr in | rain 24hr in | rain mn in | humidity % | barometer mb |
| 20260505224213 | 51 | 133 | 0.0 | 0.9 | 0.00 | 0.27 | 0.00 | 96 | 1022.5 |
| 20260505223503 | 51 | 132 | 0.0 | 0.9 | 0.00 | 0.27 | 0.00 | 96 | 1022.8 |
| 20260505223003 | 51 | 0 | 0.0 | 0.0 | 0.00 | 0.27 | 0.00 | 95 | 1022.8 |
| 20260505222503 | 51 | 282 | 0.0 | 0.9 | 0.00 | 0.27 | 0.00 | 95 | 1022.6 |
| 20260505222003 | 51 | 282 | 0.0 | 0.9 | 0.00 | 0.27 | 0.00 | 95 | 1022.5 |
| 20260505221503 | 52 | 0 | 0.0 | 0.0 | 0.00 | 0.27 | 0.00 | 95 | 1022.8 |
| 20260505221003 | 52 | 74 | 0.0 | 0.9 | 0.00 | 0.27 | 0.00 | 95 | 1022.8 |
| 20260505220503 | 52 | 74 | 0.0 | 0.9 | 0.00 | 0.27 | 0.00 | 95 | 1022.8 |
| 20260505220003 | 52 | 0 | 0.0 | 0.0 | 0.00 | 0.27 | 0.00 | 95 | 1022.6 |
| 20260505215503 | 52 | 0 | 0.0 | 0.0 | 0.00 | 0.27 | 0.27 | 95 | 1022.8 |
| 20260505215003 | 52 | 0 | 0.0 | 0.0 | 0.00 | 0.27 | 0.27 | 95 | 1022.6 |
| 20260505214503 | 52 | 0 | 0.0 | 0.0 | 0.00 | 0.27 | 0.27 | 95 | 1022.8 |
| 20260505214003 | 52 | 0 | 0.0 | 0.0 | 0.00 | 0.27 | 0.27 | 95 | 1022.7 |
| 20260505213503 | 52 | 0 | 0.0 | 0.0 | 0.00 | 0.27 | 0.27 | 95 | 1022.7 |
| 20260505213003 | 52 | 68 | 0.0 | 0.9 | 0.00 | 0.27 | 0.27 | 95 | 1022.9 |
| 20260505212503 | 52 | 68 | 0.0 | 0.9 | 0.00 | 0.27 | 0.27 | 95 | 1023.0 |
| 20260505212214 | 52 | 57 | 0.0 | 0.9 | 0.00 | 0.27 | 0.27 | 95 | 1023.3 |
| 20260505211503 | 52 | 299 | 0.0 | 0.9 | 0.00 | 0.27 | 0.27 | 95 | 1023.0 |
| 20260505211003 | 52 | 348 | 0.0 | 0.9 | 0.00 | 0.27 | 0.27 | 94 | 1023.2 |
| 20260505210503 | 52 | 70 | 0.0 | 0.9 | 0.00 | 0.27 | 0.27 | 95 | 1023.2 |
| 20260505210003 | 52 | 70 | 0.0 | 0.9 | 0.00 | 0.27 | 0.27 | 94 | 1023.3 |
| 20260505205504 | 52 | 71 | 0.0 | 0.9 | 0.00 | 0.27 | 0.27 | 94 | 1023.4 |
| 20260505205003 | 52 | 0 | 0.0 | 0.0 | 0.00 | 0.27 | 0.27 | 94 | 1023.2 |
| 20260505204503 | 52 | 0 | 0.0 | 0.0 | 0.00 | 0.27 | 0.27 | 93 | 1023.2 |
| 20260505204013 | 52 | 0 | 0.0 | 0.0 | 0.00 | 0.28 | 0.27 | 93 | 1023.2 |
| 20260505203503 | 52 | 0 | 0.0 | 0.0 | 0.00 | 0.28 | 0.27 | 93 | 1023.2 |
| 20260505203003 | 52 | 0 | 0.0 | 0.0 | 0.00 | 0.28 | 0.27 | 93 | 1023.0 |
| 20260505202503 | 52 | 0 | 0.0 | 0.0 | 0.00 | 0.28 | 0.27 | 93 | 1023.1 |
| 20260505202214 | 52 | 0 | 0.0 | 0.0 | 0.00 | 0.28 | 0.27 | 93 | 1023.2 |
| 20260505201503 | 52 | 77 | 0.0 | 0.9 | 0.00 | 0.28 | 0.27 | 93 | 1023.3 |
| 20260505201004 | 52 | 77 | 0.0 | 0.9 | 0.00 | 0.28 | 0.27 | 94 | 1023.3 |
| 20260505200505 | 52 | 73 | 0.0 | 0.9 | 0.00 | 0.28 | 0.27 | 94 | 1023.3 |
| 20260505200003 | 52 | 73 | 0.9 | 1.7 | 0.00 | 0.28 | 0.27 | 94 | 1023.2 |
| 20260505195712 | 52 | 73 | 0.9 | 1.7 | 0.00 | 0.28 | 0.27 | 94 | 1023.1 |
| 20260505195213 | 52 | 71 | 0.0 | 0.9 | 0.00 | 0.29 | 0.27 | 94 | 1022.9 |
| 20260505194503 | 52 | 79 | 0.0 | 1.7 | 0.00 | 0.29 | 0.27 | 93 | 1022.8 |
| 20260505194003 | 52 | 76 | 0.0 | 1.7 | 0.00 | 0.29 | 0.27 | 92 | 1023.0 |
| 20260505193504 | 52 | 64 | 0.0 | 0.9 | 0.00 | 0.30 | 0.27 | 93 | 1023.0 |
| 20260505193003 | 52 | 72 | 0.0 | 1.7 | 0.00 | 0.30 | 0.27 | 93 | 1022.9 |
| 20260505192504 | 52 | 75 | 0.0 | 1.7 | 0.00 | 0.30 | 0.27 | 93 | 1022.9 |
| 20260505192004 | 53 | 68 | 0.0 | 1.7 | 0.00 | 0.31 | 0.27 | 94 | 1022.7 |
| 20260505191503 | 53 | 68 | 0.0 | 1.7 | 0.00 | 0.31 | 0.27 | 93 | 1022.9 |
| 20260505191003 | 53 | 0 | 0.0 | 0.0 | 0.00 | 0.31 | 0.27 | 93 | 1022.8 |
| 20260505190712 | 53 | 0 | 0.0 | 0.0 | 0.00 | 0.31 | 0.27 | 93 | 1022.6 |
| 20260505190003 | 53 | 0 | 0.0 | 0.0 | 0.00 | 0.31 | 0.27 | 93 | 1022.4 |
| 20260505185714 | 54 | 0 | 0.0 | 0.0 | 0.00 | 0.32 | 0.27 | 93 | 1022.5 |
| 20260505185003 | 54 | 0 | 0.0 | 0.0 | 0.00 | 0.32 | 0.27 | 93 | 1022.4 |
| 20260505184504 | 54 | 0 | 0.0 | 0.0 | 0.00 | 0.32 | 0.27 | 92 | 1022.5 |
| 20260505184003 | 54 | 0 | 0.0 | 0.0 | 0.00 | 0.32 | 0.27 | 92 | 1022.5 |
| 20260505183503 | 54 | 0 | 0.0 | 0.0 | 0.00 | 0.32 | 0.27 | 92 | 1022.5 |
| 20260505183003 | 54 | 0 | 0.0 | 0.0 | 0.00 | 0.32 | 0.27 | 92 | 1022.5 |
| 20260505182503 | 54 | 0 | 0.0 | 0.0 | 0.00 | 0.32 | 0.27 | 91 | 1022.6 |
| 20260505182003 | 54 | 0 | 0.0 | 0.0 | 0.00 | 0.32 | 0.27 | 91 | 1022.4 |
| 20260505181503 | 54 | 97 | 0.0 | 0.9 | 0.00 | 0.32 | 0.27 | 91 | 1022.4 |
| 20260505181003 | 54 | 243 | 0.0 | 1.7 | 0.00 | 0.32 | 0.27 | 91 | 1022.6 |
| 20260505180503 | 53 | 263 | 0.0 | 1.7 | 0.00 | 0.32 | 0.27 | 91 | 1022.5 |
| 20260505180003 | 53 | 223 | 0.0 | 1.7 | 0.00 | 0.32 | 0.27 | 91 | 1022.4 |
| 20260505175503 | 53 | 224 | 0.9 | 1.7 | 0.00 | 0.32 | 0.27 | 92 | 1022.5 |
| 20260505175003 | 54 | 229 | 0.9 | 1.7 | 0.00 | 0.32 | 0.27 | 92 | 1022.4 |
| 20260505174503 | 54 | 209 | 0.9 | 1.7 | 0.00 | 0.32 | 0.27 | 91 | 1022.2 |
| 20260505174003 | 54 | 229 | 0.9 | 2.6 | 0.00 | 0.32 | 0.27 | 91 | 1022.4 |
| 20260505173503 | 54 | 242 | 0.9 | 2.6 | 0.00 | 0.33 | 0.27 | 90 | 1022.3 |
| 20260505173003 | 54 | 231 | 0.9 | 1.7 | 0.00 | 0.33 | 0.27 | 89 | 1022.4 |
| 20260505172714 | 54 | 243 | 0.9 | 1.7 | 0.00 | 0.33 | 0.27 | 89 | 1022.1 |
| 20260505172003 | 55 | 215 | 0.0 | 1.7 | 0.00 | 0.33 | 0.27 | 88 | 1022.1 |
| 20260505171503 | 55 | 138 | 0.0 | 1.7 | 0.00 | 0.33 | 0.27 | 87 | 1021.9 |
| 20260505171213 | 54 | 153 | 0.9 | 2.6 | 0.00 | 0.33 | 0.27 | 87 | 1022.0 |
| 20260505170503 | 54 | 237 | 0.9 | 2.6 | 0.00 | 0.34 | 0.27 | 88 | 1022.4 |
| 20260505170003 | 55 | 208 | 0.9 | 1.7 | 0.00 | 0.34 | 0.27 | 87 | 1022.4 |
| 20260505165503 | 55 | 139 | 0.9 | 1.7 | 0.00 | 0.34 | 0.27 | 86 | 1022.4 |
| 20260505165003 | 55 | 122 | 0.0 | 1.7 | 0.00 | 0.34 | 0.27 | 86 | 1022.5 |
| 20260505164503 | 55 | 132 | 0.0 | 1.7 | 0.00 | 0.34 | 0.27 | 85 | 1022.5 |
| 20260505164003 | 55 | 151 | 0.9 | 2.6 | 0.00 | 0.34 | 0.27 | 85 | 1022.3 |
| 20260505163503 | 55 | 151 | 0.9 | 2.6 | 0.00 | 0.34 | 0.27 | 85 | 1022.4 |
| 20260505163003 | 55 | 164 | 0.9 | 1.7 | 0.00 | 0.34 | 0.27 | 85 | 1022.4 |
| 20260505162503 | 55 | 159 | 0.9 | 2.6 | 0.00 | 0.34 | 0.27 | 85 | 1022.5 |
| 20260505162003 | 55 | 142 | 0.9 | 3.5 | 0.00 | 0.34 | 0.27 | 84 | 1022.5 |
| 20260505161503 | 55 | 140 | 0.9 | 3.5 | 0.00 | 0.34 | 0.27 | 84 | 1022.5 |
| 20260505161003 | 55 | 145 | 0.9 | 3.5 | 0.00 | 0.34 | 0.27 | 84 | 1022.4 |
| 20260505160503 | 56 | 141 | 0.9 | 2.6 | 0.00 | 0.34 | 0.27 | 84 | 1022.4 |
| 20260505153214 | 56 | 206 | 0.9 | 2.6 | 0.00 | 0.34 | 0.27 | 82 | 1022.3 |
| 20260505152504 | 56 | 176 | 0.9 | 2.6 | 0.00 | 0.34 | 0.27 | 81 | 1022.3 |
| 20260505152003 | 56 | 206 | 0.9 | 2.6 | 0.00 | 0.34 | 0.27 | 83 | 1022.2 |
| 20260505151503 | 56 | 198 | 0.9 | 2.6 | 0.00 | 0.34 | 0.27 | 83 | 1022.2 |
| 20260505151214 | 56 | 167 | 0.9 | 2.6 | 0.00 | 0.34 | 0.27 | 83 | 1021.9 |
| 20260505150713 | 56 | 155 | 0.9 | 2.6 | 0.00 | 0.34 | 0.27 | 84 | 1022.4 |
| 20260505140503 | 55 | 251 | 0.9 | 3.5 | 0.00 | 0.34 | 0.27 | 88 | 1022.8 |
| 20260505140213 | 55 | 163 | 0.9 | 3.5 | 0.00 | 0.34 | 0.27 | 88 | 1022.8 |
| 20260505125003 | 55 | 195 | 0.9 | 3.5 | 0.00 | 0.34 | 0.27 | 83 | 1023.3 |
| 20260505124503 | 55 | 282 | 0.9 | 2.6 | 0.00 | 0.34 | 0.27 | 84 | 1023.3 |
| 20260505124003 | 56 | 301 | 0.0 | 2.6 | 0.00 | 0.34 | 0.27 | 83 | 1023.2 |
| 20260505123503 | 56 | 165 | 0.0 | 1.7 | 0.00 | 0.34 | 0.27 | 83 | 1023.1 |
| 20260505123003 | 55 | 168 | 0.9 | 1.7 | 0.00 | 0.34 | 0.27 | 85 | 1023.2 |
| 20260505122503 | 55 | 176 | 0.9 | 2.6 | 0.00 | 0.34 | 0.27 | 85 | 1023.2 |
| 20260505122213 | 55 | 188 | 0.9 | 2.6 | 0.00 | 0.34 | 0.27 | 85 | 1023.2 |
| 20260505121714 | 55 | 185 | 0.9 | 2.6 | 0.00 | 0.34 | 0.27 | 84 | 1023.2 |
| 20260505121003 | 55 | 162 | 0.9 | 3.5 | 0.00 | 0.34 | 0.27 | 85 | 1023.2 |
| 20260505120504 | 55 | 161 | 0.9 | 3.5 | 0.00 | 0.34 | 0.27 | 87 | 1023.1 |
| 20260505120004 | 54 | 175 | 0.9 | 3.5 | 0.00 | 0.34 | 0.27 | 87 | 1023.4 |
| 20260505115503 | 54 | 229 | 1.7 | 5.2 | 0.00 | 0.34 | 0.27 | 88 | 1023.6 |
| 20260505115003 | 53 | 249 | 1.7 | 5.2 | 0.00 | 0.34 | 0.27 | 89 | 1023.6 |
| 20260505114503 | 53 | 214 | 1.7 | 5.2 | 0.00 | 0.34 | 0.27 | 90 | 1023.9 |
| 20260505114003 | 53 | 202 | 1.7 | 5.2 | 0.00 | 0.34 | 0.27 | 90 | 1023.8 |
| 20260505113713 | 53 | 216 | 1.7 | 3.5 | 0.00 | 0.34 | 0.27 | 91 | 1023.9 |
| 20260505113003 | 52 | 214 | 1.7 | 3.5 | 0.00 | 0.34 | 0.27 | 91 | 1024.2 |
| 20260505112713 | 52 | 186 | 1.7 | 3.5 | 0.00 | 0.34 | 0.27 | 92 | 1024.2 |
| 20260505112214 | 52 | 185 | 1.7 | 3.5 | 0.00 | 0.34 | 0.27 | 92 | 1024.1 |
| 20260505111503 | 52 | 204 | 1.7 | 3.5 | 0.00 | 0.34 | 0.27 | 92 | 1024.0 |
| 20260505111003 | 52 | 219 | 0.9 | 2.6 | 0.00 | 0.34 | 0.27 | 91 | 1024.1 |
| 20260505110503 | 52 | 219 | 0.9 | 3.5 | 0.00 | 0.34 | 0.27 | 90 | 1024.3 |
| 20260505102214 | 53 | 142 | 0.0 | 0.9 | 0.00 | 0.36 | 0.27 | 84 | 1024.1 |
| 20260505101503 | 53 | 228 | 0.0 | 0.9 | 0.00 | 0.36 | 0.27 | 84 | 1024.3 |
| 20260505101003 | 52 | 178 | 0.0 | 0.9 | 0.00 | 0.36 | 0.27 | 84 | 1024.5 |
| 20260505100503 | 53 | 129 | 0.0 | 0.9 | 0.00 | 0.36 | 0.27 | 85 | 1024.4 |
| 20260505100003 | 52 | 138 | 0.0 | 0.9 | 0.00 | 0.36 | 0.27 | 85 | 1024.1 |
| 20260505095713 | 52 | 125 | 0.0 | 0.9 | 0.00 | 0.36 | 0.27 | 84 | 1024.3 |
| 20260505095003 | 52 | 0 | 0.0 | 0.0 | 0.00 | 0.36 | 0.27 | 86 | 1024.1 |
| 20260505094503 | 52 | 75 | 0.0 | 0.9 | 0.00 | 0.36 | 0.27 | 87 | 1024.3 |
| 20260505094214 | 52 | 70 | 0.0 | 0.9 | 0.00 | 0.36 | 0.27 | 87 | 1024.6 |
| 20260505093503 | 52 | 71 | 0.0 | 2.6 | 0.00 | 0.36 | 0.27 | 88 | 1024.3 |
| 20260505093003 | 52 | 122 | 0.0 | 0.9 | 0.00 | 0.36 | 0.27 | 87 | 1024.4 |
| 20260505092503 | 52 | 101 | 0.0 | 0.9 | 0.00 | 0.36 | 0.27 | 87 | 1024.4 |
| 20260505092003 | 52 | 110 | 0.0 | 0.9 | 0.00 | 0.36 | 0.27 | 87 | 1024.1 |
| 20260505091503 | 51 | 153 | 0.0 | 0.9 | 0.00 | 0.36 | 0.27 | 87 | 1024.4 |
| 20260505091214 | 51 | 159 | 0.0 | 0.9 | 0.00 | 0.36 | 0.27 | 87 | 1024.5 |
| 20260505090712 | 51 | 213 | 0.0 | 0.9 | 0.00 | 0.36 | 0.27 | 89 | 1024.3 |
| 20260505090003 | 51 | 128 | 0.0 | 0.9 | 0.00 | 0.36 | 0.27 | 88 | 1024.5 |
| 20260505085503 | 51 | 183 | 0.0 | 0.9 | 0.00 | 0.36 | 0.27 | 91 | 1024.3 |
| 20260505085003 | 51 | 200 | 0.0 | 1.7 | 0.00 | 0.36 | 0.27 | 91 | 1024.5 |
| 20260505084503 | 51 | 223 | 0.0 | 1.7 | 0.00 | 0.36 | 0.27 | 91 | 1024.5 |
| 20260505084003 | 51 | 181 | 0.9 | 1.7 | 0.00 | 0.36 | 0.27 | 91 | 1024.4 |
| 20260505083503 | 50 | 170 | 0.9 | 1.7 | 0.00 | 0.36 | 0.27 | 92 | 1024.3 |
| 20260505083003 | 51 | 239 | 0.0 | 1.7 | 0.00 | 0.36 | 0.27 | 91 | 1024.3 |
| 20260505082714 | 51 | 254 | 0.0 | 1.7 | 0.00 | 0.36 | 0.27 | 91 | 1024.1 |
| 20260505082003 | 51 | 0 | 0.0 | 0.0 | 0.00 | 0.36 | 0.27 | 90 | 1024.3 |
| 20260505081503 | 51 | 301 | 0.0 | 0.9 | 0.00 | 0.36 | 0.27 | 90 | 1024.0 |
| 20260505081003 | 51 | 299 | 0.0 | 0.9 | 0.00 | 0.36 | 0.27 | 89 | 1024.4 |
| 20260505080503 | 50 | 299 | 0.9 | 1.7 | 0.00 | 0.36 | 0.27 | 89 | 1024.1 |
| 20260505080004 | 50 | 296 | 0.9 | 2.6 | 0.00 | 0.36 | 0.27 | 90 | 1024.1 |
| 20260505075503 | 50 | 295 | 0.9 | 2.6 | 0.00 | 0.36 | 0.27 | 91 | 1024.1 |
| 20260505075213 | 50 | 300 | 0.9 | 2.6 | 0.00 | 0.36 | 0.27 | 90 | 1024.0 |
| 20260505074503 | 51 | 322 | 0.0 | 0.9 | 0.00 | 0.36 | 0.27 | 90 | 1024.0 |
| 20260505074003 | 51 | 327 | 0.0 | 0.9 | 0.00 | 0.36 | 0.27 | 90 | 1024.1 |
| 20260505073503 | 51 | 0 | 0.0 | 0.0 | 0.00 | 0.36 | 0.27 | 90 | 1024.1 |
| 20260505073003 | 50 | 296 | 0.0 | 0.9 | 0.00 | 0.36 | 0.27 | 92 | 1024.1 |
| 20260505072503 | 50 | 299 | 0.0 | 1.7 | 0.00 | 0.36 | 0.27 | 92 | 1024.4 |
| 20260505072003 | 50 | 300 | 0.0 | 1.7 | 0.00 | 0.36 | 0.27 | 91 | 1024.1 |
| 20260505071503 | 50 | 0 | 0.0 | 0.0 | 0.00 | 0.36 | 0.27 | 91 | 1024.0 |
| 20260505071213 | 50 | 0 | 0.0 | 0.0 | 0.00 | 0.36 | 0.27 | 90 | 1024.1 |
| 20260505070503 | 50 | 295 | 0.0 | 0.9 | 0.00 | 0.36 | 0.27 | 91 | 1024.2 |
| 20260505070003 | 50 | 290 | 0.0 | 0.9 | 0.00 | 0.36 | 0.27 | 92 | 1024.0 |
| 20260505065503 | 50 | 0 | 0.0 | 0.0 | 0.00 | 0.36 | 0.27 | 90 | 1024.1 |
| 20260505065003 | 50 | 0 | 0.0 | 0.0 | 0.00 | 0.36 | 0.27 | 90 | 1024.1 |
| 20260505064503 | 49 | 299 | 0.0 | 1.7 | 0.00 | 0.36 | 0.27 | 91 | 1024.1 |
| 20260505064003 | 49 | 292 | 0.9 | 1.7 | 0.00 | 0.36 | 0.27 | 92 | 1024.2 |
| 20260505063503 | 49 | 287 | 0.9 | 1.7 | 0.00 | 0.36 | 0.27 | 93 | 1024.3 |
| 20260505063213 | 49 | 284 | 0.0 | 0.9 | 0.00 | 0.36 | 0.27 | 93 | 1024.0 |
| 20260505062503 | 49 | 281 | 0.0 | 0.9 | 0.00 | 0.36 | 0.27 | 93 | 1024.1 |
| 20260505062003 | 49 | 294 | 0.0 | 0.9 | 0.00 | 0.36 | 0.27 | 93 | 1024.1 |
| 20260505061503 | 49 | 296 | 0.0 | 0.9 | 0.00 | 0.36 | 0.27 | 93 | 1024.1 |
| 20260505061003 | 49 | 262 | 0.0 | 0.9 | 0.00 | 0.36 | 0.27 | 94 | 1024.3 |
| 20260505060503 | 49 | 165 | 0.0 | 0.9 | 0.00 | 0.36 | 0.27 | 94 | 1024.1 |
| 20260505060003 | 49 | 134 | 0.0 | 0.9 | 0.00 | 0.36 | 0.27 | 94 | 1024.4 |
| 20260505055503 | 49 | 299 | 0.0 | 0.9 | 0.00 | 0.36 | 0.27 | 94 | 1024.5 |
| 20260505055214 | 49 | 308 | 0.0 | 0.9 | 0.00 | 0.36 | 0.27 | 94 | 1024.4 |
| 20260505054503 | 49 | 65 | 0.0 | 0.9 | 0.00 | 0.36 | 0.27 | 93 | 1024.0 |
| 20260505054003 | 49 | 306 | 0.0 | 0.9 | 0.00 | 0.36 | 0.27 | 93 | 1024.0 |
| 20260505053503 | 49 | 306 | 0.0 | 0.9 | 0.00 | 0.36 | 0.27 | 93 | 1023.9 |
| 20260505053003 | 49 | 0 | 0.0 | 0.0 | 0.00 | 0.36 | 0.27 | 92 | 1023.8 |
| 20260505052503 | 49 | 71 | 0.0 | 1.7 | 0.00 | 0.36 | 0.27 | 90 | 1024.1 |
| 20260505052003 | 49 | 66 | 0.0 | 1.7 | 0.00 | 0.36 | 0.27 | 91 | 1024.2 |
| 20260505051503 | 49 | 63 | 0.0 | 2.6 | 0.01 | 0.36 | 0.27 | 92 | 1024.0 |
| 20260505051003 | 49 | 52 | 0.0 | 2.6 | 0.01 | 0.36 | 0.27 | 91 | 1024.0 |
| 20260505050503 | 49 | 58 | 0.9 | 1.7 | 0.02 | 0.36 | 0.27 | 92 | 1024.0 |
| 20260505041713 | 49 | 0 | 0.0 | 0.0 | 0.10 | 0.36 | 0.27 | 97 | 1024.5 |
| 20260505041003 | 49 | 0 | 0.0 | 0.0 | 0.10 | 0.35 | 0.26 | 97 | 1024.7 |
| 20260505040503 | 49 | 0 | 0.0 | 0.0 | 0.10 | 0.34 | 0.25 | 97 | 1024.7 |
| 20260505040004 | 49 | 0 | 0.0 | 0.0 | 0.10 | 0.33 | 0.24 | 97 | 1024.9 |
| 20260505035503 | 49 | 67 | 0.0 | 0.9 | 0.09 | 0.32 | 0.23 | 97 | 1024.9 |
| 20260505035003 | 49 | 67 | 0.0 | 0.9 | 0.09 | 0.31 | 0.22 | 97 | 1024.9 |
| 20260505034503 | 50 | 0 | 0.0 | 0.0 | 0.09 | 0.29 | 0.20 | 97 | 1024.9 |
| 20260505034003 | 50 | 0 | 0.0 | 0.0 | 0.09 | 0.28 | 0.19 | 97 | 1024.8 |
| 20260505033712 | 50 | 0 | 0.0 | 0.0 | 0.10 | 0.28 | 0.19 | 97 | 1025.1 |
| 20260505033003 | 49 | 301 | 0.0 | 0.9 | 0.10 | 0.27 | 0.18 | 97 | 1024.9 |
| 20260505032503 | 49 | 301 | 0.0 | 0.9 | 0.11 | 0.27 | 0.18 | 97 | 1025.0 |
| 20260505032213 | 50 | 301 | 0.0 | 0.9 | 0.12 | 0.27 | 0.18 | 97 | 1025.2 |
| 20260505031503 | 50 | 0 | 0.0 | 0.0 | 0.13 | 0.26 | 0.17 | 97 | 1025.1 |
| 20260505031003 | 50 | 0 | 0.0 | 0.0 | 0.13 | 0.25 | 0.16 | 97 | 1025.2 |
| 20260505030714 | 50 | 0 | 0.0 | 0.0 | 0.12 | 0.24 | 0.15 | 97 | 1025.2 |
| 20260505030003 | 50 | 0 | 0.0 | 0.0 | 0.12 | 0.23 | 0.14 | 97 | 1025.4 |
| 20260505025503 | 50 | 0 | 0.0 | 0.0 | 0.12 | 0.23 | 0.14 | 97 | 1025.3 |
| 20260505025003 | 50 | 0 | 0.0 | 0.0 | 0.12 | 0.22 | 0.13 | 97 | 1025.4 |
| 20260505024503 | 50 | 0 | 0.0 | 0.0 | 0.10 | 0.20 | 0.11 | 97 | 1025.5 |
| 20260505024003 | 50 | 0 | 0.0 | 0.0 | 0.09 | 0.19 | 0.10 | 97 | 1025.6 |
| 20260505023503 | 49 | 0 | 0.0 | 0.0 | 0.08 | 0.18 | 0.09 | 97 | 1025.4 |
| 20260505023213 | 49 | 0 | 0.0 | 0.0 | 0.07 | 0.17 | 0.08 | 97 | 1025.6 |
| 20260505022503 | 49 | 0 | 0.0 | 0.0 | 0.06 | 0.16 | 0.07 | 96 | 1025.6 |
| 20260505022003 | 49 | 0 | 0.0 | 0.0 | 0.05 | 0.15 | 0.06 | 96 | 1025.7 |
| 20260505021503 | 49 | 302 | 0.0 | 0.9 | 0.03 | 0.13 | 0.04 | 96 | 1025.5 |
| 20260505021003 | 50 | 302 | 0.0 | 0.9 | 0.02 | 0.12 | 0.03 | 96 | 1025.5 |
| 20260505020503 | 50 | 0 | 0.0 | 0.0 | 0.02 | 0.12 | 0.03 | 96 | 1025.5 |
| 20260505020004 | 50 | 0 | 0.0 | 0.0 | 0.01 | 0.11 | 0.02 | 96 | 1025.5 |
| 20260505015503 | 50 | 0 | 0.0 | 0.0 | 0.01 | 0.11 | 0.02 | 96 | 1025.5 |
| 20260505015003 | 50 | 0 | 0.0 | 0.0 | 0.00 | 0.10 | 0.01 | 96 | 1025.2 |
| 20260505014503 | 50 | 0 | 0.0 | 0.0 | 0.00 | 0.10 | 0.01 | 96 | 1025.4 |
| 20260505014213 | 50 | 0 | 0.0 | 0.0 | 0.00 | 0.10 | 0.01 | 96 | 1025.5 |
| 20260505013503 | 50 | 0 | 0.0 | 0.0 | 0.00 | 0.10 | 0.01 | 96 | 1025.3 |
| 20260505013003 | 49 | 0 | 0.0 | 0.0 | 0.00 | 0.10 | 0.01 | 95 | 1025.5 |
| 20260505012503 | 50 | 0 | 0.0 | 0.0 | 0.00 | 0.10 | 0.01 | 95 | 1025.5 |
| 20260505012003 | 50 | 0 | 0.0 | 0.0 | 0.00 | 0.10 | 0.01 | 95 | 1025.4 |
| 20260505011503 | 50 | 290 | 0.0 | 0.9 | 0.01 | 0.10 | 0.01 | 95 | 1025.5 |
| 20260505011003 | 50 | 299 | 0.0 | 0.9 | 0.01 | 0.10 | 0.01 | 95 | 1025.7 |
| 20260505010713 | 50 | 314 | 0.0 | 0.9 | 0.01 | 0.10 | 0.01 | 95 | 1025.7 |
| 20260505010003 | 50 | 57 | 0.0 | 1.7 | 0.01 | 0.10 | 0.01 | 94 | 1025.6 |
| 20260505005503 | 50 | 58 | 0.0 | 1.7 | 0.01 | 0.10 | 0.01 | 94 | 1025.9 |
| 20260505005004 | 50 | 63 | 0.0 | 1.7 | 0.01 | 0.10 | 0.01 | 95 | 1026.0 |
| 20260505004713 | 50 | 63 | 0.0 | 1.7 | 0.01 | 0.10 | 0.01 | 94 | 1025.9 |
| 20260505004003 | 50 | 63 | 0.0 | 1.7 | 0.01 | 0.10 | 0.01 | 94 | 1026.0 |
| 20260505003503 | 50 | 65 | 0.0 | 0.9 | 0.01 | 0.10 | 0.01 | 93 | 1026.2 |
| 20260505003003 | 50 | 0 | 0.0 | 0.0 | 0.01 | 0.10 | 0.01 | 94 | 1026.5 |
| 20260505002503 | 50 | 62 | 0.0 | 0.9 | 0.01 | 0.10 | 0.01 | 94 | 1026.6 |
| 20260505002003 | 50 | 62 | 0.0 | 0.9 | 0.01 | 0.10 | 0.01 | 94 | 1026.9 |
| 20260505001503 | 50 | 43 | 0.0 | 0.9 | 0.00 | 0.09 | 0.00 | 94 | 1026.8 |
| 20260505001003 | 50 | 60 | 0.0 | 2.6 | 0.00 | 0.09 | 0.00 | 94 | 1027.1 |
| 20260505000503 | 50 | 60 | 0.9 | 2.6 | 0.00 | 0.09 | 0.00 | 94 | 1027.0 |
| 20260505000003 | 50 | 59 | 0.9 | 1.7 | 0.00 | 0.09 | 0.00 | 94 | 1027.2 |
| 20260504235503 | 50 | 57 | 0.0 | 1.7 | 0.00 | 0.09 | 0.00 | 93 | 1027.4 |
| 20260504235003 | 50 | 49 | 0.0 | 0.9 | 0.00 | 0.09 | 0.00 | 94 | 1027.4 |
| 20260504234503 | 50 | 49 | 0.0 | 0.9 | 0.00 | 0.09 | 0.00 | 94 | 1027.7 |
| 20260504234003 | 50 | 301 | 0.0 | 0.9 | 0.00 | 0.09 | 0.00 | 95 | 1027.8 |
| 20260504233713 | 50 | 301 | 0.0 | 0.9 | 0.00 | 0.09 | 0.00 | 95 | 1027.6 |
| 20260504233214 | 50 | 296 | 0.0 | 0.9 | 0.00 | 0.09 | 0.00 | 95 | 1027.9 |
| 20260504232503 | 50 | 303 | 0.0 | 0.9 | 0.00 | 0.09 | 0.00 | 94 | 1027.4 |
| 20260504232003 | 50 | 51 | 0.0 | 0.9 | 0.00 | 0.09 | 0.00 | 95 | 1027.8 |
| 20260504231503 | 50 | 335 | 0.0 | 0.9 | 0.00 | 0.09 | 0.00 | 94 | 1027.8 |
| 20260504231003 | 50 | 300 | 0.0 | 1.7 | 0.00 | 0.09 | 0.00 | 95 | 1027.8 |
| 20260504230503 | 50 | 299 | 0.0 | 1.7 | 0.00 | 0.09 | 0.00 | 94 | 1027.8 |
| 20260504230003 | 50 | 0 | 0.0 | 0.0 | 0.00 | 0.09 | 0.00 | 94 | 1028.0 |
| 20260504225503 | 50 | 308 | 0.0 | 0.9 | 0.00 | 0.09 | 0.00 | 94 | 1028.2 |
| 20260504225214 | 50 | 30 | 0.0 | 0.9 | 0.00 | 0.09 | 0.00 | 94 | 1028.1 |
| 20260504224503 | 50 | 73 | 0.0 | 0.9 | 0.00 | 0.09 | 0.00 | 92 | 1028.0 |